World > North America > United States > Washington

Cusick, Washington Regional Weather

Lat: 48.33N, Lon: 117.29W
Wx Zone: WAZ037Web Search

Helpful Tip: Type the letters wx in the search engine next time you need to find us.

Feedback


°F Click to change Cusick hourly weather to Imperial units.Click to change Cusick hourly weather to Metric units. °C
Cusick Weather Map
UTC Time: 4/10/2021, 12:13
Your Time:

Cusick, WA Regional Weather

Expires:202104101300;;329445
ASUS46 KSEW 101210
RWRWA 

WASHINGTON REGIONAL WEATHER ROUNDUP
NATIONAL WEATHER SERVICE SEATTLE WA
500 AM PDT SAT APR 10 2021

NOTE:"FAIR" INDICATES FEW OR NO CLOUDS BELOW 12,000 FEET WITH NO 
SIGNIFICANT WEATHER AND/OR OBSTRUCTIONS TO VISIBILITY.


WAZ036>038-101300-
NORTHEAST WASHINGTON
  
CITY           SKY/WX    TMP DP  RH WIND       PRES   REMARKS
SPOKANE GEIGER PTCLDY    38  26  62 SW20      29.81S                  
6HR MIN TEMP:  38; 6HR MAX TEMP:  48; 6HR PCP: TRACE;                

SPOKANE FELTS  CLEAR     41  28  60 SW14      29.83F                  
6HR MIN TEMP:  41; 6HR MAX TEMP:  51;                                

FAIRCHILD AFB  CLEAR     36  28  73 S21       29.80F                  
6HR MIN TEMP:  36; 6HR MAX TEMP:  45; 6HR PCP: TRACE;                

COEURDALENE,ID PTCLDY    39  28  64 S10       29.82F                  
6HR MIN TEMP:  38; 6HR MAX TEMP:  48; 6HR PCP: TRACE;                

DEER PARK      CLEAR     38  25  59 SW13      29.80F                  
6HR MIN TEMP:  37; 6HR MAX TEMP:  47;                                

$$


SKY/WX - Weather  TMP - Temperature  DP - Dew Point  RH - Relative Humidity
WIND - Wind Direction/Speed PRES - Barometric Pressure VSB - Visibility
WCI - Wind Chill Index E13G22 Wind - East Wind 13 mph/Gusts of 22 mph